Weather History for KAFF - November, 2011

Change the Weather History Date:

Friday, November 25, 2011

  Actual Average Record
Temperature  
Mean Temperature 43 °F -  
Max Temperature 53 °F 44 °F 59 °F (1997)
Min Temperature 32 °F 22 °F 3 °F (2010)
Degree Days  
Heating Degree Days 22    
Moisture  
Dew Point 19 °F    
Average Humidity 37    
Maximum Humidity 70    
Minimum Humidity 23    
Precipitation  
Precipitation 0.00 in - - ()
Sea Level Pressure  
Sea Level Pressure 29.66 in    
Wind  
Wind Speed 11 mph (NW)    
Max Wind Speed 22 mph    
Max Gust Speed 31 mph    
Visibility 10 miles    
Events      
Averages and records for this station are not official NWS values.
T = Trace of Precipitation, MM = Missing Value Source: NWS Daily Summary

Daily Weather History Graph

Daily Weather History Graph

Search for Another Location

Airport or City:

Trip Planner

Search our weather history database for the weather conditions in past years. The results will help you decide how hot, cold, wet, or windy it might be!

Date:

Astronomy

Nov. 25, 2011 Rise Set
Actual Time 6:52 AM MST 4:39 PM MST
Civil Twilight 6:23 AM MST 5:08 PM MST
Nautical Twilight 5:50 AM MST 5:41 PM MST
Astronomical Twilight 5:18 AM MST 6:13 PM MST
Moon 7:22 AM MST (11/25) 5:10 PM MST (11/25)
Length of Visible Light 10h 44m
Length of Day
9h 46m
New Moon, 0% of the Moon is Illuminated
Nov 25
New Moon
Dec 2
First Quarter
Dec 10
Full
Dec 17
Last Quarter
Dec 24
New

Hourly Weather History & Observations

Time (MST) Temp. Windchill Dew Point Humidity Pressure Visibility Wind Dir Wind Speed Gust Speed Precip Events Conditions
12:55 AM 48.0 °F - 11.5 °F 23% 29.62 in 10.0 mi Variable 4.6 mph - N/A   Clear
1:55 AM 47.7 °F - 14.7 °F 27% 29.61 in 10.0 mi NW 9.2 mph - N/A   Clear
2:55 AM 53.1 °F - 18.9 °F 26% 29.59 in 10.0 mi West 19.6 mph 29.9 mph N/A   Clear
3:55 AM 52.0 °F - 18.7 °F 27% 29.57 in 10.0 mi WSW 20.7 mph 31.1 mph N/A   Clear
3:57 AM 51.8 °F - 19.4 °F 28% 29.57 in 10.0 mi SW 21.9 mph 31.1 mph N/A   Clear
4:55 AM 50.5 °F - 20.5 °F 31% 29.60 in 10.0 mi NW 8.1 mph - N/A   Scattered Clouds
5:55 AM 47.5 °F - 21.7 °F 36% 29.57 in 10.0 mi NW 5.8 mph - N/A   Partly Cloudy
6:55 AM 49.3 °F - 22.3 °F 35% 29.58 in 10.0 mi NNW 9.2 mph - N/A   Clear
7:55 AM 49.6 °F - 19.4 °F 30% 29.61 in 10.0 mi WSW 15.0 mph 29.9 mph N/A   Clear
8:01 AM 50.0 °F - 21.2 °F 32% 29.61 in 10.0 mi West 10.4 mph 29.9 mph N/A   Clear
8:55 AM 48.2 °F - 21.6 °F 35% 29.60 in 10.0 mi NW 5.8 mph - N/A   Clear
9:55 AM 49.3 °F - 18.9 °F 30% 29.63 in 10.0 mi WNW 15.0 mph 20.7 mph N/A   Clear
10:55 AM 50.5 °F - 18.9 °F 29% 29.64 in 10.0 mi NNW 11.5 mph - N/A   Scattered Clouds
11:55 AM 51.3 °F - 17.6 °F 26% 29.64 in 10.0 mi NW 12.7 mph 17.3 mph N/A   Clear
12:55 PM 50.2 °F - 21.2 °F 32% 29.60 in 10.0 mi North 5.8 mph - N/A   Clear
1:55 PM 49.5 °F - 26.8 °F 41% 29.60 in 10.0 mi Calm Calm - N/A   Clear
2:55 PM 48.9 °F - 14.5 °F 25% 29.57 in 10.0 mi North 4.6 mph - N/A   Clear
3:55 PM 48.9 °F - 15.6 °F 27% 29.57 in 10.0 mi North 5.8 mph - N/A   Mostly Cloudy
4:55 PM 41.4 °F 36.8 °F 32.4 °F 70% 29.64 in 10.0 mi SSE 6.9 mph - N/A   Partly Cloudy
5:55 PM 36.3 °F 31.6 °F 25.0 °F 63% 29.73 in 10.0 mi NNE 5.8 mph - N/A   Partly Cloudy
6:55 PM 36.5 °F 30.3 °F 21.4 °F 54% 29.75 in 10.0 mi NNW 8.1 mph - N/A   Mostly Cloudy
7:55 PM 34.3 °F 25.9 °F 18.5 °F 52% 29.80 in 10.0 mi North 11.5 mph - N/A   Clear
8:55 PM 34.7 °F 26.4 °F 21.4 °F 58% 29.84 in 10.0 mi North 11.5 mph - N/A   Clear
9:55 PM 34.3 °F 23.5 °F 17.4 °F 50% 29.87 in 10.0 mi North 18.4 mph - N/A   Clear
10:55 PM 33.8 °F 22.5 °F 17.6 °F 52% 29.89 in 10.0 mi NNW 19.6 mph - N/A   Clear
11:55 PM 32.5 °F 20.5 °F 6.3 °F 33% 29.96 in 10.0 mi NW 20.7 mph 29.9 mph N/A   Partly Cloudy